Regional Weather Roundup
Issued by NWS

Home | Current Version | Previous Version | Graphics & Text | Print | Product List | Glossary On
Versions: 1 2 3 4 5 6 7 8 9 10 11 12 13 14 15 16 17 18 19 20 21 22 23 24 25 26 27 28 29 30 31 32 33 34 35 36 37 38 39 40 41 42 43 44 45 46 47 48 49 50
595
ASUS43 KLOT 261409
RWRIL

ILLINOIS REGIONAL WEATHER ROUNDUP
NATIONAL WEATHER SERVICE CHICAGO/ROMEOVILLE IL
900 AM CDT WED JUL 26 2017

NOTE: "FAIR" INDICATES FEW OR NO CLOUDS BELOW 12,000 FEET WITH NO
SIGNIFICANT WEATHER AND/OR OBSTRUCTIONS TO VISIBILITY.

* THESE STATIONS ARE NOT UNDER NWS QUALITY CONTROL. THEY ALSO MAY NOT
  REPORT WEATHER SUCH AS PRECIPITATION OR FOG.

ILZ001-002-007-009-015-016-024-261500-
NORTHWEST ILLINOIS

CITY           SKY/WX    TMP DP  RH WIND       PRES   REMARKS
MOLINE         MOSUNNY   77  69  76 SW9       30.04S
STERLING*      MOSUNNY   73  68  84 SE5       30.07S
SAVANNA*       MOSUNNY   73  68  84 S6        30.05F
$$

ILZ003-004-008-010-011-017-018-261500-
NORTH CENTRAL ILLINOIS

CITY           SKY/WX    TMP DP  RH WIND       PRES   REMARKS
ROCKFORD       CLOUDY    73  65  75 S8        30.09S
FREEPORT*      PTSUNNY   71  66  83 S7        30.09S
ROCHELLE*      CLOUDY    71  66  84 S3        30.09S
DE KALB*       PTSUNNY   70  65  86 S8        30.10S
PERU*          MOSUNNY  N/A N/A N/A S6        30.09R
$$

ILZ005-006-012>014-019>023-261500-
NORTHEAST ILLINOIS

CITY           SKY/WX    TMP DP  RH WIND       PRES   REMARKS
CHICAGO-OHARE  CLOUDY    75  63  66 SW6       30.09R
CHICAGO-MIDWAY CLOUDY    74  62  66 SW8       30.09S
AURORA         CLOUDY    72  65  78 S6        30.10S
LANSING*       CLOUDY    71  61  71 S7        30.11S
JOLIET*        CLOUDY    74  66  76 S5        30.10S
WAUKEGAN       PTSUNNY   73  65  75 SW9       30.07F
DUPAGE AIRPORT CLOUDY    72  66  81 SW10      30.09R
KANKAKEE*      CLOUDY    71  64  78 S5        30.10F
WHEELING       MOSUNNY   75  65  70 S6        30.09F
MORRIS*        CLOUDY    71  65  81 S5        30.08S
ROMEOVILLE*    CLOUDY    72  63  71 SW7       30.10R
NORTHERLY ISL    N/A     73  59  61 SW5         N/A
$$

LMZ740>746-261500-
SOUTHERN LAKE MICHIGAN

STATION/POSITION SKY/WX   TEMP    WIND        PRES    VSBY  WAVE
                          AIR SEA DIR/SP/G                  HT/PER
                          (F)     (DEG/KT/KT) (MB)    (MI)  (FT/S)
SOUTHERN BUOY              71 70  200/ 12/ 16 1018.5F         3/ 5
WILMETTE HARBOR            72 71  190/  6/  8   N/A           1/ 4
HARRISON CRIB              72     190/ 11/ 12   N/A
BURNHAM HARBOR             73                   N/A
CALUMET HARBOR             72     210/  5/  9 1018.7S
BURNS HARBOR               72     180/ 10/ 14 1019.6F
MICHIGAN CITY              69     160/ 10/ 12   N/A
MICHIGAN CITY 6N           71 74  180/ 10/ 12   N/A           1/ 2
ST. JOSEPH                 70 72  210/ 12/ 14 1019.3          2/ 3
$$

ILZ025>027-034>036-040-047-049-050-058-095>099-261500-
WEST-CENTRAL ILLINOIS

CITY           SKY/WX    TMP DP  RH WIND       PRES   REMARKS
QUINCY         SUNNY     78  72  81 SE7       30.03F HX  80
GALESBURG*     MOSUNNY   73  69  88 S6        30.07S
MACOMB*        MOSUNNY   74  71  92 S6        30.08S
JACKSONVILLE*  CLOUDY    76  71  83 S5        30.05S
PITTSFIELD*    SUNNY     77  74  88 S5        30.06S
$$

ILZ028>032-037-038-041>044-048-051>054-059>061-261500-
CENTRAL ILLINOIS

CITY           SKY/WX    TMP DP  RH WIND       PRES   REMARKS
PONTIAC        MOSUNNY   72  69  91 SE3       30.10S
BLOOMINGTON    MOSUNNY   74  66  76 S7        30.10S
DECATUR        MOSUNNY   76  68  76 SE7       30.08F
PEORIA         CLOUDY    76  69  79 S7        30.07S
LACON*         CLOUDY    75  68  79 S5        30.07R
LINCOLN*       CLOUDY    77  70  80 S8        30.08R
SPRINGFIELD    CLOUDY    80  72  76 S7        30.07R HX  84
TAYLORVILLE    SUNNY     78  71  79 S6        30.07S
$$

ILZ033-039-045-046-055>057-062-063-261500-
EAST-CENTRAL ILLINOIS

CITY           SKY/WX    TMP DP  RH WIND       PRES   REMARKS
CHAMPAIGN      MOSUNNY   74  67  78 SE7       30.10F
RANTOUL*       MOSUNNY   74  68  80 S8        30.09F
MATTOON        MOSUNNY   75  68  78 SE8       30.08F
PARIS*         MOSUNNY   73  67  83 SE7       30.11F
$$

ILZ079-100>102-261500-
SOUTHWEST ILLINOIS

CITY           SKY/WX    TMP DP  RH WIND       PRES   REMARKS
ALTON          MOSUNNY   79  73  83 E7        30.05F HX  82
BELLEVILLE     SUNNY     80  74  83 SW3       30.06S HX  84
CAHOKIA*       MOSUNNY   83  74  74 CALM      30.04S HX  89
SPARTA*        PTSUNNY   82  75  80 S5        30.07R HX  89
$$

ILZ064>066-069>071-074>076-080>082-084>086-088>090-092>094-261500-
SOUTH-CENTRAL ILLINOIS

CITY           SKY/WX    TMP DP  RH WIND       PRES   REMARKS
CARBONDALE     SUNNY     84  79  85 S8        30.06S HX  96
CAIRO*         SUNNY     82  79  89 S5        30.07S HX  92
EFFINGHAM*     MOSUNNY   77  71  81 E8        30.09S
MARION         SUNNY     84  82  94 S9        30.07S HX 101
MT. VERNON     SUNNY     79  73  82 S5        30.07S HX  82
CENTRALIA*     SUNNY     82  75  81 S5        30.06S HX  88
SALEM*         SUNNY     80  72  76 SE6       30.07F HX  83
METROPOLIS*    SUNNY     83  78  84 S3        30.08S HX  94
$$

ILZ067-068-072-073-078-083-087-091-261500-
SOUTHEAST ILLINOIS

CITY           SKY/WX    TMP DP  RH WIND       PRES   REMARKS
LAWRENCEVILLE  SUNNY     77  68  73 VRB5      30.09F
FLORA*         SUNNY     79  71  77 SE6       30.08F HX  81
FAIRFIELD*     MOSUNNY   79  73  80 CALM      30.06F HX  83
HARRISBURG*    SUNNY     82  76  82 SE5       30.07S HX  90
ROBINSON*      MOSUNNY   75  68  78 SE6       30.11S
CARMI*         SUNNY     79  74  84 S6        30.07S HX  82
$$

ABBREVIATIONS USED IN REMARKS
   TC - TEMPERATURE IN CELSIUS
  WCI - WIND CHILL INDEX
   HX - HEAT INDEX
  VSB - VISIBILITY
$$





USA.gov is the U.S. government's official web portal to all federal, state and local government web resources and services.